Time,TemperatureF,DewpointF,PressureIn,WindDirection,WindDirectionDegrees,WindSpeedMPH,WindSpeedGustMPH,Humidity,HourlyPrecipIn,Conditions,Clouds,dailyrainin,SoftwareType,DateUTC
2013-04-21 00:02:00,30.0,15.0,-100.00,South,170,0.0,0.0,53,-99.99,,,-99.99,,2013-04-21 05:02:00,
2013-04-21 00:11:00,29.0,16.0,-100.00,SE,140,1.0,4.0,60,-99.99,,,-99.99,,2013-04-21 05:11:00,
2013-04-21 00:32:00,29.0,16.0,-100.00,SE,140,1.0,4.0,60,-99.99,,,-99.99,,2013-04-21 05:32:00,
2013-04-21 00:43:00,29.0,16.0,-100.00,SE,140,1.0,4.0,60,-99.99,,,-99.99,,2013-04-21 05:43:00,
2013-04-21 00:52:00,29.0,16.0,-100.00,SE,140,1.0,4.0,60,-99.99,,,-99.99,,2013-04-21 05:52:00,
2013-04-21 01:01:00,29.0,16.0,-100.00,SE,140,1.0,4.0,60,-99.99,,,-99.99,,2013-04-21 06:01:00,
2013-04-21 01:32:00,31.0,19.0,-100.00,ESE,115,3.0,7.0,61,-99.99,,,-99.99,,2013-04-21 06:32:00,
2013-04-21 01:42:00,31.0,19.0,-100.00,ESE,115,3.0,7.0,61,-99.99,,,-99.99,,2013-04-21 06:42:00,
2013-04-21 01:52:00,31.0,19.0,-100.00,ESE,115,3.0,7.0,61,-99.99,,,-99.99,,2013-04-21 06:52:00,
2013-04-21 02:01:00,31.0,19.0,-100.00,ESE,115,3.0,7.0,61,-99.99,,,-99.99,,2013-04-21 07:01:00,
2013-04-21 02:10:00,32.0,21.0,-100.00,SE,145,4.0,7.0,62,-99.99,,,-99.99,,2013-04-21 07:10:00,
2013-04-21 02:32:00,32.0,21.0,-100.00,SE,145,4.0,7.0,62,-99.99,,,-99.99,,2013-04-21 07:32:00,
2013-04-21 02:42:00,32.0,21.0,-100.00,SE,145,4.0,7.0,62,-99.99,,,-99.99,,2013-04-21 07:42:00,
2013-04-21 02:52:00,32.0,21.0,-100.00,SE,145,4.0,7.0,62,-99.99,,,-99.99,,2013-04-21 07:52:00,
2013-04-21 03:01:00,32.0,21.0,-100.00,SE,145,4.0,7.0,62,-99.99,,,-99.99,,2013-04-21 08:01:00,
2013-04-21 03:11:00,33.0,22.0,-100.00,SE,130,6.0,9.0,63,-99.99,,,-99.99,,2013-04-21 08:11:00,
2013-04-21 03:32:00,33.0,22.0,-100.00,SE,130,6.0,9.0,63,-99.99,,,-99.99,,2013-04-21 08:32:00,
2013-04-21 03:42:00,33.0,22.0,-100.00,SE,130,6.0,9.0,63,-99.99,,,-99.99,,2013-04-21 08:42:00,
2013-04-21 03:52:00,33.0,22.0,-100.00,SE,130,6.0,9.0,63,-99.99,,,-99.99,,2013-04-21 08:52:00,
2013-04-21 04:01:00,33.0,22.0,-100.00,SE,130,6.0,9.0,63,-99.99,,,-99.99,,2013-04-21 09:01:00,
2013-04-21 04:10:00,33.0,21.0,-100.00,ESE,120,8.0,15.0,63,-99.99,,,-99.99,,2013-04-21 09:10:00,
2013-04-21 04:33:00,33.0,21.0,-100.00,ESE,120,8.0,15.0,63,-99.99,,,-99.99,,2013-04-21 09:33:00,
2013-04-21 04:43:00,33.0,21.0,-100.00,ESE,120,8.0,15.0,63,-99.99,,,-99.99,,2013-04-21 09:43:00,
2013-04-21 04:53:00,33.0,21.0,-100.00,ESE,120,8.0,15.0,63,-99.99,,,-99.99,,2013-04-21 09:53:00,
2013-04-21 05:02:00,33.0,21.0,-100.00,ESE,120,8.0,15.0,63,-99.99,,,-99.99,,2013-04-21 10:02:00,
2013-04-21 05:10:00,33.0,20.0,-100.00,SE,140,7.0,13.0,60,-99.99,,,-99.99,,2013-04-21 10:10:00,
2013-04-21 05:33:00,33.0,20.0,-100.00,SE,140,7.0,13.0,60,-99.99,,,-99.99,,2013-04-21 10:33:00,
2013-04-21 05:42:00,33.0,20.0,-100.00,SE,140,7.0,13.0,60,-99.99,,,-99.99,,2013-04-21 10:42:00,
2013-04-21 05:52:00,33.0,20.0,-100.00,SE,140,7.0,13.0,60,-99.99,,,-99.99,,2013-04-21 10:52:00,
2013-04-21 06:02:00,33.0,20.0,-100.00,SE,140,7.0,13.0,60,-99.99,,,-99.99,,2013-04-21 11:02:00,
2013-04-21 06:11:00,33.0,20.0,-100.00,ESE,120,6.0,16.0,60,-99.99,,,-99.99,,2013-04-21 11:11:00,
2013-04-21 06:34:00,33.0,20.0,-100.00,ESE,120,6.0,16.0,60,-99.99,,,-99.99,,2013-04-21 11:34:00,
2013-04-21 06:42:00,33.0,20.0,-100.00,ESE,120,6.0,16.0,60,-99.99,,,-99.99,,2013-04-21 11:42:00,
2013-04-21 06:52:00,33.0,20.0,-100.00,ESE,120,6.0,16.0,60,-99.99,,,-99.99,,2013-04-21 11:52:00,
2013-04-21 07:02:00,33.0,20.0,-100.00,ESE,120,6.0,16.0,60,-99.99,,,-99.99,,2013-04-21 12:02:00,
2013-04-21 07:10:00,33.0,21.0,-100.00,SE,125,6.0,11.0,59,-99.99,,,-99.99,,2013-04-21 12:10:00,
2013-04-21 07:32:00,33.0,21.0,-100.00,SE,125,6.0,11.0,59,-99.99,,,-99.99,,2013-04-21 12:32:00,
2013-04-21 07:42:00,33.0,21.0,-100.00,SE,125,6.0,11.0,59,-99.99,,,-99.99,,2013-04-21 12:42:00,
2013-04-21 07:52:00,33.0,21.0,-100.00,SE,125,6.0,11.0,59,-99.99,,,-99.99,,2013-04-21 12:52:00,
2013-04-21 08:01:00,33.0,21.0,-100.00,SE,125,6.0,11.0,59,-99.99,,,-99.99,,2013-04-21 13:01:00,
2013-04-21 08:11:00,35.0,20.0,-100.00,SE,145,7.0,14.0,55,-99.99,,,-99.99,,2013-04-21 13:11:00,
2013-04-21 08:32:00,35.0,20.0,-100.00,SE,145,7.0,14.0,55,-99.99,,,-99.99,,2013-04-21 13:32:00,
2013-04-21 08:42:00,35.0,20.0,-100.00,SE,145,7.0,14.0,55,-99.99,,,-99.99,,2013-04-21 13:42:00,
2013-04-21 08:52:00,35.0,20.0,-100.00,SE,145,7.0,14.0,55,-99.99,,,-99.99,,2013-04-21 13:52:00,
2013-04-21 09:02:00,35.0,20.0,-100.00,SE,145,7.0,14.0,55,-99.99,,,-99.99,,2013-04-21 14:02:00,
2013-04-21 09:32:00,36.0,19.0,-100.00,SSE,150,9.0,16.0,49,-99.99,,,-99.99,,2013-04-21 14:32:00,
2013-04-21 09:42:00,36.0,19.0,-100.00,SSE,150,9.0,16.0,49,-99.99,,,-99.99,,2013-04-21 14:42:00,
2013-04-21 09:52:00,36.0,19.0,-100.00,SSE,150,9.0,16.0,49,-99.99,,,-99.99,,2013-04-21 14:52:00,
2013-04-21 10:02:00,36.0,19.0,-100.00,SSE,150,9.0,16.0,49,-99.99,,,-99.99,,2013-04-21 15:02:00,
2013-04-21 10:33:00,38.0,20.0,-100.00,SE,135,12.0,22.0,48,-99.99,,,-99.99,,2013-04-21 15:33:00,
2013-04-21 10:43:00,38.0,20.0,-100.00,SE,135,12.0,22.0,48,-99.99,,,-99.99,,2013-04-21 15:43:00,
2013-04-21 10:53:00,38.0,20.0,-100.00,SE,135,12.0,22.0,48,-99.99,,,-99.99,,2013-04-21 15:53:00,
2013-04-21 11:03:00,38.0,20.0,-100.00,SE,135,12.0,22.0,48,-99.99,,,-99.99,,2013-04-21 16:03:00,
2013-04-21 11:11:00,40.0,20.0,-100.00,SE,145,14.0,26.0,44,-99.99,,,-99.99,,2013-04-21 16:11:00,
2013-04-21 11:33:00,40.0,20.0,-100.00,SE,145,14.0,26.0,44,-99.99,,,-99.99,,2013-04-21 16:33:00,
2013-04-21 11:42:00,40.0,20.0,-100.00,SE,145,14.0,26.0,44,-99.99,,,-99.99,,2013-04-21 16:42:00,
2013-04-21 11:53:00,40.0,20.0,-100.00,SE,145,14.0,26.0,44,-99.99,,,-99.99,,2013-04-21 16:53:00,
2013-04-21 12:02:00,40.0,20.0,-100.00,SE,145,14.0,26.0,44,-99.99,,,-99.99,,2013-04-21 17:02:00,
2013-04-21 13:10:00,47.0,22.0,-100.00,SSE,165,12.0,26.0,38,-99.99,,,-99.99,,2013-04-21 18:10:00,
2013-04-21 13:33:00,47.0,22.0,-100.00,SSE,165,12.0,26.0,38,-99.99,,,-99.99,,2013-04-21 18:33:00,
2013-04-21 13:42:00,47.0,22.0,-100.00,SSE,165,12.0,26.0,38,-99.99,,,-99.99,,2013-04-21 18:42:00,
2013-04-21 13:52:00,47.0,22.0,-100.00,SSE,165,12.0,26.0,38,-99.99,,,-99.99,,2013-04-21 18:52:00,
2013-04-21 14:02:00,47.0,22.0,-100.00,SSE,165,12.0,26.0,38,-99.99,,,-99.99,,2013-04-21 19:02:00,
2013-04-21 14:11:00,47.0,24.0,-100.00,SE,140,11.0,23.0,40,-99.99,,,-99.99,,2013-04-21 19:11:00,
2013-04-21 14:32:00,47.0,24.0,-100.00,SE,140,11.0,23.0,40,-99.99,,,-99.99,,2013-04-21 19:32:00,
2013-04-21 14:43:00,47.0,24.0,-100.00,SE,140,11.0,23.0,40,-99.99,,,-99.99,,2013-04-21 19:43:00,
2013-04-21 14:52:00,47.0,24.0,-100.00,SE,140,11.0,23.0,40,-99.99,,,-99.99,,2013-04-21 19:52:00,
2013-04-21 15:02:00,47.0,24.0,-100.00,SE,140,11.0,23.0,40,-99.99,,,-99.99,,2013-04-21 20:02:00,
2013-04-21 15:12:00,48.0,25.0,-100.00,SSE,165,14.0,21.0,41,-99.99,,,-99.99,,2013-04-21 20:12:00,
2013-04-21 15:32:00,48.0,25.0,-100.00,SSE,165,14.0,21.0,41,-99.99,,,-99.99,,2013-04-21 20:32:00,
2013-04-21 15:42:00,48.0,25.0,-100.00,SSE,165,14.0,21.0,41,-99.99,,,-99.99,,2013-04-21 20:42:00,
2013-04-21 15:52:00,48.0,25.0,-100.00,SSE,165,14.0,21.0,41,-99.99,,,-99.99,,2013-04-21 20:52:00,
2013-04-21 16:02:00,48.0,25.0,-100.00,SSE,165,14.0,21.0,41,-99.99,,,-99.99,,2013-04-21 21:02:00,
2013-04-21 16:12:00,50.0,26.0,-100.00,SSE,150,11.0,24.0,40,-99.99,,,-99.99,,2013-04-21 21:12:00,
2013-04-21 16:33:00,50.0,26.0,-100.00,SSE,150,11.0,24.0,40,-99.99,,,-99.99,,2013-04-21 21:33:00,
2013-04-21 16:43:00,50.0,26.0,-100.00,SSE,150,11.0,24.0,40,-99.99,,,-99.99,,2013-04-21 21:43:00,
2013-04-21 16:53:00,50.0,26.0,-100.00,SSE,150,11.0,24.0,40,-99.99,,,-99.99,,2013-04-21 21:53:00,
2013-04-21 17:02:00,50.0,26.0,-100.00,SSE,150,11.0,24.0,40,-99.99,,,-99.99,,2013-04-21 22:02:00,
2013-04-21 17:10:00,52.0,28.0,-100.00,SSE,155,11.0,27.0,40,-99.99,,,-99.99,,2013-04-21 22:10:00,
2013-04-21 17:33:00,52.0,28.0,-100.00,SSE,155,11.0,27.0,40,-99.99,,,-99.99,,2013-04-21 22:33:00,
2013-04-21 17:43:00,52.0,28.0,-100.00,SSE,155,11.0,27.0,40,-99.99,,,-99.99,,2013-04-21 22:43:00,
2013-04-21 17:52:00,52.0,28.0,-100.00,SSE,155,11.0,27.0,40,-99.99,,,-99.99,,2013-04-21 22:52:00,
2013-04-21 18:02:00,52.0,28.0,-100.00,SSE,155,11.0,27.0,40,-99.99,,,-99.99,,2013-04-21 23:02:00,
2013-04-21 18:32:00,51.0,29.0,-100.00,SSE,150,12.0,28.0,42,-99.99,,,-99.99,,2013-04-21 23:32:00,
2013-04-21 18:43:00,51.0,29.0,-100.00,SSE,150,12.0,28.0,42,-99.99,,,-99.99,,2013-04-21 23:43:00,
2013-04-21 18:52:00,51.0,29.0,-100.00,SSE,150,12.0,28.0,42,-99.99,,,-99.99,,2013-04-21 23:52:00,
2013-04-21 19:01:00,51.0,29.0,-100.00,SSE,150,12.0,28.0,42,-99.99,,,-99.99,,2013-04-22 00:01:00,
2013-04-21 19:10:00,50.0,30.0,-100.00,SE,145,10.0,21.0,46,-99.99,,,-99.99,,2013-04-22 00:10:00,
2013-04-21 19:11:00,51.0,29.0,-100.00,SSE,150,12.0,28.0,42,-99.99,,,-99.99,,2013-04-22 00:11:00,
2013-04-21 19:32:00,50.0,30.0,-100.00,SE,145,10.0,21.0,46,-99.99,,,-99.99,,2013-04-22 00:32:00,
2013-04-21 19:42:00,50.0,30.0,-100.00,SE,145,10.0,21.0,46,-99.99,,,-99.99,,2013-04-22 00:42:00,
2013-04-21 19:52:00,50.0,30.0,-100.00,SE,145,10.0,21.0,46,-99.99,,,-99.99,,2013-04-22 00:52:00,
2013-04-21 20:01:00,50.0,30.0,-100.00,SE,145,10.0,21.0,46,-99.99,,,-99.99,,2013-04-22 01:01:00,
2013-04-21 20:11:00,48.0,31.0,-100.00,SE,145,8.0,16.0,50,-99.99,,,-99.99,,2013-04-22 01:11:00,
2013-04-21 20:32:00,48.0,31.0,-100.00,SE,145,8.0,16.0,50,-99.99,,,-99.99,,2013-04-22 01:32:00,
2013-04-21 20:42:00,48.0,31.0,-100.00,SE,145,8.0,16.0,50,-99.99,,,-99.99,,2013-04-22 01:42:00,
2013-04-21 20:52:00,48.0,31.0,-100.00,SE,145,8.0,16.0,50,-99.99,,,-99.99,,2013-04-22 01:52:00,
2013-04-21 21:02:00,48.0,31.0,-100.00,SE,145,8.0,16.0,50,-99.99,,,-99.99,,2013-04-22 02:02:00,
2013-04-21 21:32:00,47.0,31.0,-100.00,SE,140,7.0,22.0,52,-99.99,,,-99.99,,2013-04-22 02:32:00,
2013-04-21 21:42:00,47.0,31.0,-100.00,SE,140,7.0,22.0,52,-99.99,,,-99.99,,2013-04-22 02:42:00,
2013-04-21 21:52:00,47.0,31.0,-100.00,SE,140,7.0,22.0,52,-99.99,,,-99.99,,2013-04-22 02:52:00,
2013-04-21 22:02:00,47.0,31.0,-100.00,SE,140,7.0,22.0,52,-99.99,,,-99.99,,2013-04-22 03:02:00,
2013-04-21 22:10:00,47.0,31.0,-100.00,SE,145,11.0,21.0,53,-99.99,,,-99.99,,2013-04-22 03:10:00,
2013-04-21 22:33:00,47.0,31.0,-100.00,SE,145,11.0,21.0,53,-99.99,,,-99.99,,2013-04-22 03:33:00,
2013-04-21 22:43:00,47.0,31.0,-100.00,SE,145,11.0,21.0,53,-99.99,,,-99.99,,2013-04-22 03:43:00,
2013-04-21 22:52:00,47.0,31.0,-100.00,SE,145,11.0,21.0,53,-99.99,,,-99.99,,2013-04-22 03:52:00,
2013-04-21 23:03:00,47.0,31.0,-100.00,SE,145,11.0,21.0,53,-99.99,,,-99.99,,2013-04-22 04:03:00,
2013-04-21 23:11:00,46.0,31.0,-100.00,SE,140,8.0,16.0,55,-99.99,,,-99.99,,2013-04-22 04:11:00,
2013-04-21 23:33:00,46.0,31.0,-100.00,SE,140,8.0,16.0,55,-99.99,,,-99.99,,2013-04-22 04:33:00,
2013-04-21 23:43:00,46.0,31.0,-100.00,SE,140,8.0,16.0,55,-99.99,,,-99.99,,2013-04-22 04:43:00,
2013-04-21 23:53:00,46.0,31.0,-100.00,SE,140,8.0,16.0,55,-99.99,,,-99.99,,2013-04-22 04:53:00,